Tracking 17844 objects as of 24-August-2016
HD Live streaming from Space Station
objects crossing your sky now

COSMOS 963

Track COSMOS 963 now!
10-day predictions
COSMOS 963 is classified as:


NORAD ID: 10491
Int'l Code: 1977-109A
Perigee: 1,188.7 km
Apogee: 1,213.7 km
Inclination: 82.9 °
Period: 109.3 minutes
Semi major axis: 7572 km
RCS: 3.0327 m2 (large)
Launch date: November 24, 1977
Source: Commonwealth of Independent States (former USSR) (CIS)
Launch site: PLESETSK MISSILE AND SPACE COMPLEX (PKMTR)
Your satellite tracking list
Your tracking list is empty





NASA's NSSDC Master Catalog

Two Line Element Set (TLE):
1 10491U 77109A   16236.91941984 -.00000067 +00000-0 -20545-3 0  9996
2 10491 082.9338 157.4674 0016518 120.0969 355.6137 13.17568210863687
Source of the keplerian elements: AFSPC

N2YO: 407